STARLINK-32526, 62162

Orbit data source: Space-Track

STARLINK-32526, 62162 is a payload satellite owned by SpaceX/Seattle (US) in LEO that was launched on Sat, 30 Nov 2024 UTC via an FALCON 9 launch vehicle from the Air Force Eastern Test Range (AFETR). Payload-class satellites include a variety of spacecraft equipped with specific instruments for various scientific and technological missions. These include communications satellites like Starlink; space stations such as the ISS; scientific satellites like the Hubble; Earth observation satellites from companies like Planet Labs, Umbra, and HawkEye 360; GPS; miniature CubeSats for education and research; and military/defense satellites.

Loading next visibility...
Identifier
62162, 2024-224Z
Orbit
LEO
Country
Flag of USUS
Related business
Manufacturer
SpaceX/Seattle
Mission
Operational Commercial Communications
Bus & Motor
STARLINK V2M, Unknown motor
Mass
730 kg wet, ~700 kg dry
Launch date (UTC)
2024-11-30 (1 year ago)
Launch vehicle
FALCON 9
Launch site
Air Force Eastern Test Range (AFETR)
Object type
Payload
Rocket body
Debris
Shape & HBR
Box + 2 Pan, 17.7 m
Radar Cross Section
33.884 m², Large (>1 m²)

Expand to show TLE details & history
Last TLE update: 19 hours ago

TLE from 19 hours ago
0 STARLINK-32526
1 62162U 24224Z   25348.83835726  .00017983  00000-0  66156-3 0  9990
2 62162  42.9991 280.7150 0001347 276.5623  83.5075 15.27572895 59454
Epoch: 2025-12-14T20:07Z
TLE epoch observation values (Epoch: 2025-12-14T20:07:14.067Z)
Latitude
-0.00003°
Longitude
-104.83917°
Altitude
482.741 km
Speed
7.626 km/s
True Right ascension
18h 42m 51s
True Declination
0° 00' 00"
Sunlit
Object was in daylight at epoch
Visualization orbit readout
Latitude
Unknown
Longitude
Unknown
Altitude
Unknown
Speed
Unknown
Apparent Right ascension
Unknown
Apparent Declination
Unknown
Sunlit
N/A
Visualization observer readout
Local Sidereal Time
13:18:47
Azimuth
Unknown
Elevation
Unknown
Doppler factor
Unknown
Orbital elements
Apogee altitude
485.94 km
Perigee altitude
484.091 km
Semi-major axis
6,863.153 km
Eccentricity
0.00013
Inclination
42.9991°
RAAN
280.715°
Arg. of periapsis
276.5623°
True anomaly
83.52284°
Mean anomaly
83.5075°
Eccentric anomaly
83.51517°
Mean motion
3.81731 °/min
Orbital period
94.31 mins
BSTAR
0.00066156
Loading maneuver chart data...
Computing Atmospheric mass density...
Loading historical data...
Loading historical data...
Loading historical data...
Loading historical data...
Loading historical data...
Loading historical data...
Loading historical data...

Documentation

Showing up to 5 results
|